Tiempo cada hora Gölbaşı

Hoy, 2 Diciembre, Miércoles

Tiempo Temperatura Precipitaciones Viento Presión Humedad
00:00 +7°C° 1.9 mm 3 mps 684 mmHg 97%
01:00 +7°C° 1.9 mm 3 mps 684 mmHg 96%
02:00 +7°C° 1.9 mm 2 mps 684 mmHg 96%
03:00 +7°C° 0 mm 2 mps 684 mmHg 95%
04:00 +7°C° 2.5 mm 2 mps 684 mmHg 95%
05:00 +7°C° 2.5 mm 2 mps 684 mmHg 94%
06:00 +7°C° 2.5 mm 2 mps 684 mmHg 94%
07:00 +7°C° 0.9 mm 2 mps 684 mmHg 93%
08:00 +7°C° 0.9 mm 2 mps 684 mmHg 91%
09:00 +7°C° 0.9 mm 2 mps 685 mmHg 90%
10:00 +8°C° 0.3 mm 2 mps 685 mmHg 87%
11:00 +8°C° 0.3 mm 2 mps 685 mmHg 85%
12:00 +8°C° 0.3 mm 2 mps 685 mmHg 82%
13:00 +9°C° 0 mm 2 mps 684 mmHg 80%
14:00 +9°C° 0 mm 2 mps 684 mmHg 79%
15:00 +9°C° 0 mm 2 mps 684 mmHg 77%
16:00 +10°C° 0 mm 1 mps 684 mmHg 79%
17:00 +10°C° 0 mm 1 mps 684 mmHg 82%
18:00 +9°C° 0 mm 1 mps 684 mmHg 84%
19:00 +9°C° 0 mm 1 mps 684 mmHg 85%
20:00 +8°C° 0 mm 1 mps 684 mmHg 85%
21:00 +8°C° 0 mm 1 mps 685 mmHg 85%
22:00 +8°C° 0 mm 1 mps 685 mmHg 85%
23:00 +7°C° 0 mm 1 mps 685 mmHg 84%

Mañana, 3 Diciembre, Jueves

Tiempo Temperatura Precipitaciones Viento Presión Humedad
00:00 +7°C° 0 mm 1 mps 685 mmHg 84%
01:00 +7°C° 0 mm 1 mps 685 mmHg 83%
02:00 +7°C° 0 mm 1 mps 685 mmHg 82%
03:00 +6°C° 0 mm 1 mps 685 mmHg 81%
04:00 +6°C° 0 mm 1 mps 685 mmHg 80%
05:00 +6°C° 0 mm 1 mps 685 mmHg 80%
06:00 +6°C° 0 mm 1 mps 685 mmHg 79%
07:00 +7°C° 0 mm 1 mps 685 mmHg 77%
08:00 +8°C° 0 mm 1 mps 685 mmHg 74%
09:00 +8°C° 0 mm 1 mps 686 mmHg 72%
10:00 +9°C° 0 mm 1 mps 686 mmHg 68%
11:00 +11°C° 0 mm 1 mps 686 mmHg 64%
12:00 +12°C° 0 mm 1 mps 685 mmHg 60%
13:00 +12°C° 0 mm 1 mps 685 mmHg 59%
14:00 +12°C° 0 mm 1 mps 685 mmHg 58%
15:00 +12°C° 0 mm 1 mps 684 mmHg 58%
16:00 +11°C° 0 mm 1 mps 684 mmHg 63%
17:00 +9°C° 0 mm 0 mps 684 mmHg 69%
18:00 +8°C° 0 mm 0 mps 684 mmHg 74%
19:00 +7°C° 0 mm 0 mps 684 mmHg 75%
20:00 +7°C° 0 mm 0 mps 684 mmHg 75%
21:00 +7°C° 0 mm 0 mps 684 mmHg 75%
22:00 +6°C° 0 mm 0 mps 684 mmHg 75%
23:00 +6°C° 0 mm 0 mps 684 mmHg 74%

Pasado mañana, 4 Diciembre, Viernes

Tiempo Temperatura Precipitaciones Viento Presión Humedad
00:00 +7°C° 0 mm 1 mps 684 mmHg 73%
01:00 +6°C° 0 mm 0 mps 684 mmHg 73%
02:00 +6°C° 0 mm 0 mps 684 mmHg 72%
03:00 +5°C° 0 mm 0 mps 683 mmHg 72%
04:00 +5°C° 0 mm 0 mps 683 mmHg 71%
05:00 +5°C° 0 mm 0 mps 683 mmHg 71%
06:00 +5°C° 0 mm 0 mps 683 mmHg 71%
07:00 +6°C° 0 mm 0 mps 684 mmHg 69%
08:00 +7°C° 0 mm 0 mps 684 mmHg 67%
09:00 +9°C° 0 mm 1 mps 684 mmHg 65%
10:00 +10°C° 0 mm 1 mps 684 mmHg 61%
11:00 +11°C° 0 mm 1 mps 684 mmHg 57%
12:00 +12°C° 0 mm 1 mps 684 mmHg 53%
13:00 +12°C° 0 mm 1 mps 684 mmHg 52%
14:00 +12°C° 0 mm 1 mps 684 mmHg 51%
15:00 +12°C° 0 mm 1 mps 683 mmHg 50%
16:00 +11°C° 0 mm 1 mps 683 mmHg 57%
17:00 +9°C° 0 mm 0 mps 683 mmHg 63%
18:00 +7°C° 0 mm 0 mps 682 mmHg 70%
19:00 +7°C° 0 mm 0 mps 683 mmHg 70%
20:00 +7°C° 0 mm 0 mps 683 mmHg 71%
21:00 +6°C° 0 mm 0 mps 683 mmHg 71%
22:00 +6°C° 0 mm 0 mps 683 mmHg 70%
23:00 +6°C° 0 mm 0 mps 683 mmHg 69%

5 Diciembre, Sábado

Tiempo Temperatura Precipitaciones Viento Presión Humedad
00:00 +6°C° 0 mm 0 mps 683 mmHg 68%
01:00 +6°C° 0 mm 0 mps 683 mmHg 66%
02:00 +6°C° 0 mm 1 mps 683 mmHg 65%
03:00 +6°C° 0 mm 1 mps 682 mmHg 64%
04:00 +6°C° 0 mm 1 mps 682 mmHg 63%
05:00 +6°C° 0 mm 1 mps 682 mmHg 63%
06:00 +6°C° 0 mm 1 mps 682 mmHg 62%
07:00 +7°C° 0 mm 1 mps 682 mmHg 61%
08:00 +8°C° 0 mm 1 mps 683 mmHg 60%
09:00 +8°C° 0 mm 1 mps 683 mmHg 59%
10:00 +10°C° 0 mm 1 mps 683 mmHg 54%
11:00 +11°C° 0 mm 1 mps 683 mmHg 50%
12:00 +11°C° 0 mm 0 mps 683 mmHg 45%
13:00 +11°C° 0 mm 0 mps 683 mmHg 44%
14:00 +12°C° 0 mm 0 mps 682 mmHg 44%
15:00 +13°C° 0 mm 1 mps 682 mmHg 43%
16:00 +11°C° 0 mm 1 mps 682 mmHg 49%
17:00 +10°C° 0 mm 1 mps 682 mmHg 56%
18:00 +8°C° 0 mm 1 mps 681 mmHg 62%
19:00 +8°C° 0 mm 1 mps 681 mmHg 62%
20:00 +8°C° 0 mm 1 mps 682 mmHg 61%
21:00 +8°C° 0 mm 1 mps 682 mmHg 61%
22:00 +7°C° 0 mm 1 mps 682 mmHg 61%
23:00 +7°C° 0 mm 1 mps 682 mmHg 60%

6 Diciembre, Domingo

Tiempo Temperatura Precipitaciones Viento Presión Humedad
00:00 +7°C° 0 mm 1 mps 682 mmHg 59%
01:00 +7°C° 0 mm 1 mps 682 mmHg 59%
02:00 +6°C° 0 mm 1 mps 682 mmHg 59%
03:00 +6°C° 0 mm 1 mps 682 mmHg 59%
04:00 +6°C° 0 mm 1 mps 682 mmHg 59%
05:00 +6°C° 0 mm 1 mps 682 mmHg 59%
06:00 +6°C° 0 mm 1 mps 681 mmHg 59%
07:00 +6°C° 0 mm 1 mps 682 mmHg 58%
08:00 +7°C° 0 mm 1 mps 682 mmHg 57%
09:00 +8°C° 0 mm 1 mps 683 mmHg 55%
10:00 +9°C° 0 mm 1 mps 683 mmHg 50%
11:00 +11°C° 0 mm 1 mps 683 mmHg 44%
12:00 +12°C° 0 mm 1 mps 683 mmHg 38%
13:00 +12°C° 0 mm 1 mps 682 mmHg 38%
14:00 +13°C° 0 mm 1 mps 682 mmHg 37%
15:00 +13°C° 0 mm 1 mps 682 mmHg 36%
16:00 +11°C° 0 mm 1 mps 682 mmHg 42%
17:00 +10°C° 0 mm 1 mps 682 mmHg 48%
18:00 +8°C° 0 mm 1 mps 681 mmHg 54%
19:00 +8°C° 0 mm 1 mps 682 mmHg 53%
20:00 +7°C° 0 mm 1 mps 682 mmHg 53%
21:00 +7°C° 0 mm 1 mps 682 mmHg 52%
22:00 +7°C° 0 mm 1 mps 682 mmHg 52%
23:00 +6°C° 0 mm 1 mps 682 mmHg 52%

7 Diciembre, Lunes

Tiempo Temperatura Precipitaciones Viento Presión Humedad
00:00 +6°C° 0 mm 1 mps 682 mmHg 52%
01:00 +6°C° 0 mm 1 mps 682 mmHg 52%
02:00 +6°C° 0 mm 1 mps 682 mmHg 52%
03:00 +5°C° 0 mm 1 mps 683 mmHg 52%
04:00 +5°C° 0 mm 1 mps 682 mmHg 52%
05:00 +5°C° 0 mm 1 mps 682 mmHg 52%
06:00 +4°C° 0 mm 0 mps 682 mmHg 52%
07:00 +5°C° 0 mm 0 mps 683 mmHg 51%
08:00 +6°C° 0 mm 0 mps 683 mmHg 51%
09:00 +7°C° 0 mm 0 mps 684 mmHg 50%
10:00 +8°C° 0 mm 0 mps 684 mmHg 45%
11:00 +10°C° 0 mm 1 mps 684 mmHg 40%
12:00 +11°C° 0 mm 1 mps 684 mmHg 35%
13:00 +11°C° 0 mm 1 mps 684 mmHg 36%
14:00 +12°C° 0 mm 1 mps 684 mmHg 38%
15:00 +12°C° 0 mm 1 mps 683 mmHg 39%
16:00 +10°C° 0 mm 1 mps 683 mmHg 46%
17:00 +9°C° 0 mm 1 mps 683 mmHg 54%
18:00 +6°C° 0 mm 0 mps 683 mmHg 61%
19:00 +6°C° 0 mm 0 mps 683 mmHg 62%
20:00 +6°C° 0 mm 0 mps 683 mmHg 63%
21:00 +6°C° 0 mm 0 mps 683 mmHg 63%
22:00 +6°C° 0 mm 0 mps 683 mmHg 63%
23:00 +5°C° 0 mm 0 mps 683 mmHg 64%
Mostrar más

Necesitamos Su Consentimiento

Meteoprog y nuestros Proveedores de Servicios pueden almacenar y acceder a sus datos personales como cookies, identificadores de dispositivo u otras tecnologías similares de su dispositivo y procesar dichos datos para personalizar contenido y anuncios, además de ofrecer funciones de redes sociales y analizar el tráfico.

  • Almacenar y/o acceder a información en su dispositivo

    Se puede almacenar o acceder a cookies, identificadores de dispositivo u otra información de su dispositivo para los fines anteriormente indicados.

  • Anuncios y contenido personalizados, medición de anuncios y contenido, percepciones del público, y desarrollo de productos

    Los anuncios y el contenido pueden personalizarse en base a su perfil. Se pueden añadir más datos para personalizar mejor los anuncios y contenidos. Se puede medir el rendimiento de los anuncios y contenidos. Se puede obtener la percepción sobre el público que ha visto los anuncios y contenidos. Dichos datos pueden usarse para desarrollar o mejorar la experiencia del usuario, sistemas y software.

Al hacer clic en ‘Estoy De Acuerdo’ usted permitirá el uso de las cookies, identificadores de dispositivo, balizas web u otras tecnologías similares indicadas. Su configuración puede cambiarse desde el navegador de su dispositivo.

Para ciertos fines, los intereses legítimos pueden ser considerados por encima del consentimiento. Puede leer más sobre ello en nuestra Política de Privacidad y Cookies.